Weather History for Cartersville, GA

Change the Weather History Date:

Sunday, February 3, 2013

  Actual Average Record
Temperature  
Mean Temperature 42 °F 42 °F  
Max Temperature 55 °F 53 °F 66 °F (2003)
Min Temperature 28 °F 31 °F 19 °F (2009)
Degree Days  
Heating Degree Days 24 23  
Month to date heating degree days 69  
Since 1 July heating degree days 2110  
Moisture  
Dew Point 32 °F    
Average Humidity 80    
Maximum Humidity 100    
Minimum Humidity 30    
Precipitation  
Precipitation 0.00 in 0.15 in 5.84 in (1982)
Month to date precipitation 0.52  
Year to date precipitation 5.12  
Snow  
Snow 0.00 in - - ()
Month to date snowfall  
Since 1 July snowfall  
Snow Depth -    
Sea Level Pressure  
Sea Level Pressure 30.11 in    
Wind  
Wind Speed 1 mph (North)    
Max Wind Speed 8 mph    
Max Gust Speed -    
Visibility 6 miles    
Events      
T = Trace of Precipitation, MM = Missing Value Source: NWS Daily Summary

Daily Weather History Graph

Daily Weather History Graph

Search for Another Location

Airport:

Trip Planner

Search our weather history database for the weather conditions in past years. The results will help you decide how hot, cold, wet, or windy it might be!

Date:

Astronomy

Feb. 03, 2013 Rise Set
Actual Time 7:34 AM EST 6:12 PM EST
Civil Twilight 7:08 AM EST 6:38 PM EST
Nautical Twilight 6:38 AM EST 7:08 PM EST
Astronomical Twilight 6:09 AM EST 7:37 PM EST
Moon 1:01 AM EST (2/3) 11:50 AM EST (2/3)
Length of Visible Light 11h 29m
Length of Day
10h 37m
Waning Gibbous, 49% of the Moon is Illuminated
Feb 3
Waning Gibbous
Feb 10
New
Feb 17
First Quarter
Feb 25
Full
Mar 4
Last Quarter

Hourly Weather History & Observations

Time (EST) Temp. Windchill Dew Point Humidity Pressure Visibility Wind Dir Wind Speed Gust Speed Precip Events Conditions
12:18 AM 33.8 °F - 32.0 °F 93% 30.16 in 1.5 mi Calm Calm - N/A   Mostly Cloudy
12:27 AM 32.0 °F - 32.0 °F 100% 30.16 in 2.0 mi Calm Calm - N/A   Mostly Cloudy
12:34 AM 33.8 °F - 32.0 °F 93% 30.16 in 2.5 mi Calm Calm - N/A   Scattered Clouds
12:53 AM 33.1 °F - 33.1 °F 100% 30.16 in 3.0 mi Calm Calm - N/A   Clear
1:53 AM 33.1 °F - 33.1 °F 100% 30.15 in 3.0 mi Calm Calm - N/A   Clear
2:20 AM 32.0 °F - 32.0 °F 100% 30.15 in 2.5 mi Calm Calm - N/A   Clear
2:53 AM 32.0 °F - 32.0 °F 100% 30.14 in 2.0 mi Calm Calm - N/A   Mostly Cloudy
3:04 AM 33.8 °F - 33.8 °F 100% 30.14 in 3.0 mi Calm Calm - N/A   Mostly Cloudy
3:27 AM 32.0 °F - 32.0 °F 100% 30.14 in 2.5 mi Calm Calm - N/A   Mostly Cloudy
3:53 AM 32.0 °F - 32.0 °F 100% 30.13 in 2.5 mi Calm Calm - N/A   Mostly Cloudy
4:36 AM 32.0 °F - 32.0 °F 100% 30.12 in 3.0 mi Calm Calm - N/A   Overcast
4:53 AM 33.1 °F - 33.1 °F 100% 30.12 in 2.5 mi Calm Calm - N/A   Mostly Cloudy
5:15 AM 33.8 °F - 33.8 °F 100% 30.12 in 3.0 mi Calm Calm - N/A   Overcast
5:53 AM 33.1 °F - 33.1 °F 100% 30.12 in 2.0 mi Calm Calm - N/A   Mostly Cloudy
7:36 AM 28.4 °F - 28.4 °F 100% 30.11 in 1.5 mi Calm Calm - N/A   Clear
7:53 AM 30.0 °F - 30.0 °F 100% 30.11 in 1.5 mi Calm Calm - N/A   Mostly Cloudy
8:36 AM 32.0 °F - 32.0 °F 100% 30.11 in 2.0 mi Calm Calm - N/A   Mostly Cloudy
8:48 AM 33.8 °F - 33.8 °F 100% 30.11 in 3.0 mi Calm Calm - N/A   Partly Cloudy
8:53 AM 35.1 °F - 35.1 °F 100% 30.11 in 3.0 mi Calm Calm - N/A   Clear
9:53 AM 41.0 °F - 37.0 °F 86% 30.09 in 10.0 mi Calm Calm - N/A   Clear
10:53 AM 46.9 °F - 37.9 °F 71% 30.10 in 10.0 mi Calm Calm - N/A   Clear
11:53 AM 50.0 °F - 36.0 °F 59% 30.08 in 10.0 mi Variable 5.8 mph - N/A   Clear
12:53 PM 53.1 °F - 33.1 °F 47% 30.05 in 10.0 mi Calm Calm - N/A   Clear
1:53 PM 54.0 °F - 33.1 °F 45% 30.02 in 10.0 mi Variable 6.9 mph - N/A   Partly Cloudy
2:53 PM 55.0 °F - 24.1 °F 30% 30.02 in 10.0 mi Variable 4.6 mph - N/A   Clear
3:53 PM 55.0 °F - 27.0 °F 34% 30.03 in 10.0 mi Variable 4.6 mph - N/A   Clear
4:53 PM 53.1 °F - 28.0 °F 38% 30.04 in 10.0 mi Variable 3.5 mph - N/A   Clear
5:53 PM 50.0 °F - 28.9 °F 44% 30.05 in 10.0 mi Variable 3.5 mph - N/A   Clear
6:53 PM 46.9 °F - 30.0 °F 52% 30.07 in 10.0 mi Calm Calm - N/A   Clear
7:53 PM 43.0 °F - 28.9 °F 58% 30.09 in 10.0 mi Calm Calm - N/A   Clear
8:53 PM 41.0 °F - 30.0 °F 65% 30.10 in 10.0 mi Calm Calm - N/A   Clear
9:53 PM 42.1 °F 37.1 °F 28.0 °F 58% 30.11 in 10.0 mi North 8.1 mph - N/A   Clear
10:53 PM 39.0 °F 33.4 °F 28.0 °F 65% 30.13 in 10.0 mi North 8.1 mph - N/A   Clear
11:53 PM 36.0 °F 33.3 °F 28.0 °F 73% 30.14 in 10.0 mi NNW 3.5 mph - N/A   Clear